#timestamp,LO_Frequency,Hit,StdDev 
1578481215.2,286046995.4,Y
1578481235.9,286046995.5,P
1578481255.7,286046997.3,N
1578481275.6,286046998.0,N
1578481295.4,286046997.5,N
1578481315.3,286046995.2,Y
1578481335.1,286047001.2,P
1578481355.8,286047002.7,N
1578481375.7,286047001.3,N
1578481395.5,286047003.9,N
1578481415.4,286047001.5,N
1578481435.2,286047004.4,N
1578481455.0,286047001.8,N
1578481455.9,286047001.8,N
1578481475.8,286047003.7,N
1578481495.6,286047003.8,N
1578481515.5,286047006.0,Y
1578481535.3,286047002.5,P
1578481555.1,286047001.4,P
1578481575.9,286046998.7,N
1578481595.7,286046998.2,N
1578481615.6,286046998.9,N
1578481635.4,286046998.6,N
1578481655.2,286046998.3,N
1578481675.1,286047001.0,N
1578481676.0,286047001.0,N
1578481695.8,286047000.6,N
1578481715.6,286047002.6,N
1578481735.5,286046999.7,N
1578481755.3,286047000.0,N
1578481775.2,286047002.3,N
1578481795.9,286047001.9,N
1578481815.7,286046999.9,N
1578481835.6,286047002.2,N
1578481855.4,286047001.9,N
1578481875.2,286047000.6,N
1578481895.1,286046999.8,N
1578481896.0,286046999.8,N
1578481915.8,286047002.7,N
1578481935.7,286047002.8,N
1578481955.5,286046998.3,N
1578481975.3,286047001.1,N
1578481995.2,286047000.4,N
1578482015.0,286047001.5,N
1578482015.9,286047001.5,N
1578482035.7,286047002.0,N
1578482055.6,286047003.0,N
1578482075.4,286047004.4,N
1578482095.3,286047000.6,N
1578482115.1,286047000.9,N
1578482135.8,286046999.9,N
1578482155.7,286046999.8,N
1578482175.5,286047003.8,N
1578482195.4,286047001.6,N
1578482215.2,286047004.1,Y
1578482235.0,286047002.7,P
1578482235.9,286047002.7,P
1578482255.8,286047002.6,P
1578482275.6,286047000.4,N
1578482295.5,286047000.5,N
1578482315.3,286047000.4,N
1578482335.1,286047000.2,N
1578482355.9,286047002.7,N
1578482375.7,286047002.2,N
1578482395.5,286046999.8,N
1578482415.4,286046999.7,N
1578482435.2,286047000.1,N
1578482455.1,286046998.4,N
1578482456.0,286046998.4,N
1578482475.8,286046998.5,N
1578482495.6,286046998.9,N
1578482515.5,286046999.0,N
1578482535.3,286046999.3,N
1578482555.1,286047000.8,N
1578482575.9,286046999.3,N
1578482595.7,286046999.4,N
1578482615.6,286047000.8,N
1578482635.4,286046999.0,N
1578482655.2,286047000.8,N
1578482675.1,286046999.4,N
1578482676.0,286046999.4,N
1578482695.8,286046998.2,N
1578482715.7,286046998.6,N
1578482735.5,286047001.0,N
1578482755.3,286046998.9,N
1578482775.2,286046998.9,N
1578482795.9,286046998.5,N
1578482815.7,286046998.2,N
1578482835.6,286046999.0,N
1578482855.4,286046999.5,N
1578482875.3,286046998.9,N
1578482895.1,286046999.3,N
1578482896.0,286046999.3,N
1578482915.8,286046999.5,N
1578482935.7,286046998.4,N
1578482955.5,286047000.7,N
1578482975.3,286047003.8,Y
1578482995.6,286047003.0,P
1578483015.4,286047003.1,N
1578483035.3,286047001.7,N
1578483055.1,286047000.3,N
1578483056.0,286047000.3,N
1578483075.8,286047000.8,N
1578483095.7,286046998.5,N
1578483115.5,286047000.8,N
1578483135.3,286046998.7,N
1578483155.2,286047001.0,N
1578483175.0,286047001.2,N
1578483175.9,286047001.2,N
1578483195.8,286046998.5,N
1578483215.6,286047001.2,N
1578483235.4,286046998.2,N
1578483255.3,286047001.0,N
1578483275.1,286047000.5,N
1578483295.8,286046998.2,N
1578483315.7,286046998.2,N
1578483335.5,286047001.2,N
1578483355.4,286046998.4,N
1578483375.2,286046998.3,N
1578483395.0,286047000.8,N
1578483395.9,286047000.8,N
1578483415.8,286046998.4,N
1578483435.6,286047001.2,N
1578483455.5,286047000.3,N
1578483475.3,286047000.1,N
1578483495.1,286047001.1,N
1578483515.9,286047001.2,N
1578483535.7,286047000.6,N
1578483555.5,286047001.1,N
1578483575.4,286047000.3,N
1578483595.2,286047001.1,N
1578483615.1,286046998.4,N
1578483616.0,286046998.4,N
1578483635.8,286046998.6,N
1578483655.6,286046998.1,N
1578483675.5,286046998.4,N
1578483695.3,286046998.3,N
1578483715.1,286046998.5,N
1578483735.9,286046998.5,N
1578483755.7,286047000.4,N
1578483775.6,286047000.8,N
1578483795.4,286047000.0,N
1578483815.2,286046999.9,N
1578483835.1,286047000.1,N
1578483836.0,286047000.1,N
1578483855.8,286047002.7,N
1578483875.7,286047000.0,N
1578483895.5,286047001.6,N
1578483915.3,286047004.0,Y
1578483935.2,286047003.9,P
1578483955.0,286047001.4,N
1578483955.9,286047001.4,N
1578483975.8,286047002.0,N
1578483995.6,286047002.4,N
1578484015.4,286047000.2,N
1578484035.3,286047004.0,Y
1578484055.1,286047001.6,P
1578484075.9,286046999.9,P
1578484095.7,286047001.1,N
1578484115.5,286046998.2,N
1578484135.4,286047000.2,N
1578484155.2,286046999.8,N
1578484175.0,286047000.5,N
1578484175.9,286047000.5,N
1578484195.8,286047000.0,N
1578484215.6,286047000.8,N
1578484235.5,286046998.2,N
1578484255.3,286046999.3,N
1578484275.1,286046997.7,N
1578484295.9,286046997.8,N
1578484315.7,286046998.0,N
1578484335.5,286046995.9,Y
1578484355.4,286046997.7,P
1578484375.2,286046996.9,P
1578484395.1,286046997.0,N
1578484396.0,286046997.0,N
1578484415.8,286046997.1,N
1578484435.6,286046997.3,N
1578484455.5,286046999.6,N
1578484475.3,286046998.3,N
1578484495.1,286046999.6,N
1578484515.9,286046999.3,N
1578484535.7,286046997.4,N
1578484555.6,286046997.6,N
1578484575.4,286046997.7,N
1578484595.2,286046996.8,Y
1578484615.1,286046998.6,P
1578484616.0,286046998.6,P
1578484635.8,286046998.1,P
1578484655.7,286046998.2,Y
1578484675.5,286047004.4,P
1578484695.3,286047004.3,N
1578484715.2,286047002.5,N
1578484735.0,286046999.8,N
1578484735.9,286046999.8,N
1578484755.7,286047001.9,N
1578484775.6,286047002.2,N
1578484795.4,286047003.7,N
